| time (UTC) | temp F | wind direction | speed knots | gust knots | rain 1hr in | rain 24hr in | rain mn in | humidity % | barometer mb |
| 20260510153005 | 54 | 32 | 1.7 | 7.8 | 0.00 | 0.19 | 0.19 | 81 | 1013.5 |
| 20260510152005 | 54 | 39 | 1.7 | 7.0 | 0.00 | 0.19 | 0.19 | 82 | 1013.6 |
| 20260510151005 | 53 | 27 | 1.7 | 7.0 | 0.00 | 0.19 | 0.19 | 83 | 1013.7 |
| 20260510150005 | 53 | 6 | 0.9 | 6.1 | 0.00 | 0.19 | 0.19 | 84 | 1013.8 |
| 20260510145005 | 53 | 89 | 0.9 | 7.0 | 0.00 | 0.19 | 0.19 | 85 | 1013.8 |
| 20260510144005 | 53 | 346 | 1.7 | 7.0 | 0.00 | 0.19 | 0.19 | 82 | 1013.9 |
| 20260510143005 | 53 | 10 | 1.7 | 7.0 | 0.00 | 0.19 | 0.19 | 84 | 1013.9 |
| 20260510142005 | 54 | 60 | 1.7 | 6.1 | 0.00 | 0.19 | 0.19 | 85 | 1014.0 |
| 20260510140004 | 53 | 347 | 1.7 | 7.8 | 0.00 | 0.19 | 0.19 | 86 | 1014.1 |
| 20260510134005 | 52 | 356 | 0.9 | 8.7 | 0.00 | 0.19 | 0.19 | 89 | 1014.1 |
| 20260510133006 | 52 | 102 | 0.9 | 4.3 | 0.00 | 0.19 | 0.19 | 91 | 1014.2 |
| 20260510132005 | 52 | 5 | 0.9 | 4.3 | 0.00 | 0.19 | 0.19 | 91 | 1014.3 |
| 20260510130005 | 51 | 18 | 1.7 | 2.6 | 0.01 | 0.19 | 0.19 | 91 | 1014.3 |
| 20260510125005 | 51 | 28 | 1.7 | 2.6 | 0.01 | 0.19 | 0.19 | 92 | 1014.3 |
| 20260510124005 | 51 | 25 | 1.7 | 4.3 | 0.02 | 0.19 | 0.19 | 92 | 1014.4 |
| 20260510123005 | 51 | 30 | 0.9 | 2.6 | 0.03 | 0.19 | 0.19 | 92 | 1014.4 |
| 20260510122005 | 50 | 26 | 1.7 | 4.3 | 0.05 | 0.19 | 0.19 | 92 | 1014.4 |
| 20260510121005 | 50 | 15 | 2.6 | 6.1 | 0.09 | 0.18 | 0.18 | 92 | 1014.5 |
| 20260510120005 | 50 | 33 | 2.6 | 5.2 | 0.09 | 0.18 | 0.18 | 92 | 1014.5 |
| 20260510115006 | 50 | 19 | 1.7 | 4.3 | 0.11 | 0.18 | 0.18 | 92 | 1014.7 |
| 20260510114005 | 50 | 18 | 1.7 | 4.3 | 0.12 | 0.17 | 0.17 | 91 | 1015.0 |
| 20260510113005 | 50 | 19 | 0.9 | 2.6 | 0.10 | 0.16 | 0.16 | 91 | 1015.3 |
| 20260510110005 | 51 | 25 | 0.9 | 2.6 | 0.06 | 0.09 | 0.09 | 89 | 1015.4 |
| 20260510105004 | 51 | 0 | 0.9 | 4.3 | 0.04 | 0.07 | 0.07 | 89 | 1015.6 |
| 20260510104004 | 51 | 171 | 0.0 | 2.6 | 0.03 | 0.06 | 0.06 | 89 | 1015.7 |
| 20260510103004 | 51 | 19 | 0.9 | 2.6 | 0.04 | 0.06 | 0.06 | 87 | 1015.7 |
| 20260510102004 | 51 | 46 | 0.9 | 2.6 | 0.04 | 0.05 | 0.05 | 87 | 1015.6 |
| 20260510101004 | 52 | 5 | 0.9 | 2.6 | 0.04 | 0.04 | 0.04 | 86 | 1015.5 |
| 20260510100005 | 52 | 60 | 1.7 | 7.0 | 0.03 | 0.03 | 0.03 | 86 | 1015.5 |
| 20260510095006 | 52 | 59 | 0.0 | 5.2 | 0.03 | 0.03 | 0.03 | 86 | 1015.5 |
| 20260510094004 | 52 | 9 | 0.9 | 2.6 | 0.02 | 0.02 | 0.02 | 85 | 1015.5 |
| 20260510093005 | 52 | 29 | 0.9 | 2.6 | 0.02 | 0.02 | 0.02 | 85 | 1015.5 |
| 20260510091004 | 53 | 357 | 1.7 | 5.2 | 0.00 | 0.00 | 0.00 | 81 | 1015.5 |
| 20260510090006 | 53 | 63 | 0.9 | 2.6 | 0.00 | 0.00 | 0.00 | 78 | 1015.5 |
| 20260510085004 | 53 | 33 | 1.7 | 7.0 | 0.00 | 0.00 | 0.00 | 76 | 1015.5 |
| 20260510084004 | 53 | 25 | 1.7 | 7.0 | 0.00 | 0.00 | 0.00 | 76 | 1015.4 |
| 20260510083004 | 53 | 37 | 1.7 | 4.3 | 0.00 | 0.00 | 0.00 | 76 | 1015.4 |
| 20260510082005 | 53 | 37 | 0.9 | 5.2 | 0.00 | 0.00 | 0.00 | 76 | 1015.4 |
| 20260510081005 | 53 | 29 | 1.7 | 5.2 | 0.00 | 0.00 | 0.00 | 75 | 1015.3 |
| 20260510075004 | 53 | 25 | 1.7 | 4.3 | 0.00 | 0.00 | 0.00 | 76 | 1015.4 |
| 20260510074005 | 53 | 32 | 1.7 | 7.0 | 0.00 | 0.00 | 0.00 | 76 | 1015.4 |
| 20260510073004 | 53 | 28 | 1.7 | 7.8 | 0.00 | 0.00 | 0.00 | 76 | 1015.3 |
| 20260510072004 | 53 | 36 | 1.7 | 7.8 | 0.00 | 0.00 | 0.00 | 77 | 1015.4 |
| 20260510070004 | 52 | 36 | 2.6 | 7.0 | 0.00 | 0.00 | 0.00 | 77 | 1015.3 |
| 20260510065007 | 52 | 26 | 1.7 | 7.0 | 0.00 | 0.00 | 0.00 | 78 | 1015.3 |
| 20260510064004 | 52 | 36 | 1.7 | 6.1 | 0.00 | 0.00 | 0.00 | 79 | 1015.3 |
| 20260510063004 | 52 | 350 | 1.7 | 6.1 | 0.00 | 0.00 | 0.00 | 79 | 1015.3 |
| 20260510062004 | 52 | 33 | 1.7 | 4.3 | 0.00 | 0.00 | 0.00 | 78 | 1015.2 |
| 20260510061004 | 51 | 30 | 1.7 | 6.1 | 0.00 | 0.00 | 0.00 | 78 | 1015.2 |
| 20260510060005 | 51 | 5 | 0.9 | 4.3 | 0.00 | 0.00 | 0.00 | 79 | 1015.3 |
| 20260510055004 | 51 | 35 | 1.7 | 4.3 | 0.00 | 0.00 | 0.00 | 79 | 1015.3 |
| 20260510054004 | 51 | 61 | 0.9 | 5.2 | 0.00 | 0.00 | 0.00 | 80 | 1015.3 |
| 20260510053007 | 51 | 44 | 1.7 | 4.3 | 0.00 | 0.00 | 0.00 | 80 | 1015.3 |
| 20260510052004 | 51 | 49 | 1.7 | 4.3 | 0.00 | 0.00 | 0.00 | 80 | 1015.3 |
| 20260510051006 | 51 | 26 | 1.7 | 4.3 | 0.00 | 0.00 | 0.00 | 80 | 1015.3 |
| 20260510050004 | 51 | 20 | 0.9 | 4.3 | 0.00 | 0.00 | 0.00 | 80 | 1015.3 |
| 20260510045004 | 51 | 49 | 0.9 | 4.3 | 0.00 | 0.00 | 0.00 | 79 | 1015.3 |
| 20260510044005 | 51 | 56 | 0.9 | 2.6 | 0.00 | 0.00 | 0.00 | 77 | 1015.2 |
| 20260510043004 | 52 | 25 | 1.7 | 4.3 | 0.00 | 0.00 | 0.00 | 76 | 1015.3 |
| 20260510042004 | 52 | 25 | 2.6 | 5.2 | 0.00 | 0.00 | 0.00 | 75 | 1015.2 |
| 20260510041006 | 52 | 28 | 1.7 | 4.3 | 0.00 | 0.00 | 0.00 | 74 | 1015.4 |
| 20260510034006 | 53 | 32 | 0.9 | 4.3 | 0.00 | 0.00 | 0.00 | 72 | 1015.5 |
| 20260510033006 | 53 | 33 | 1.7 | 8.7 | 0.00 | 0.00 | 0.00 | 72 | 1015.6 |
| 20260510032006 | 53 | 19 | 0.9 | 2.6 | 0.00 | 0.00 | 0.00 | 72 | 1015.6 |
| 20260510030007 | 53 | 37 | 0.9 | 4.3 | 0.00 | 0.00 | 0.00 | 72 | 1015.7 |
| 20260510023006 | 54 | 28 | 0.9 | 4.3 | 0.00 | 0.00 | 0.00 | 68 | 1015.6 |
| 20260510021006 | 54 | 29 | 1.7 | 7.0 | 0.00 | 0.00 | 0.00 | 67 | 1015.6 |
| 20260510020006 | 54 | 95 | 0.9 | 2.6 | 0.00 | 0.00 | 0.00 | 66 | 1015.6 |
| 20260510015006 | 55 | 26 | 0.9 | 2.6 | 0.00 | 0.00 | 0.00 | 65 | 1015.6 |
| 20260510014005 | 55 | 53 | 1.7 | 2.6 | 0.00 | 0.00 | 0.00 | 65 | 1015.7 |
| 20260510013006 | 55 | 54 | 0.9 | 2.6 | 0.00 | 0.00 | 0.00 | 64 | 1015.7 |
| 20260510012006 | 55 | 10 | 0.9 | 7.0 | 0.00 | 0.00 | 0.00 | 62 | 1015.8 |
| 20260510005007 | 55 | 29 | 0.0 | 2.6 | 0.00 | 0.00 | 0.00 | 60 | 1015.8 |
| 20260510004006 | 56 | 78 | 0.9 | 2.6 | 0.00 | 0.00 | 0.00 | 60 | 1015.9 |
| 20260510003006 | 56 | 50 | 0.9 | 5.2 | 0.00 | 0.00 | 0.00 | 59 | 1016.0 |
| 20260510001006 | 56 | 159 | 0.0 | 2.6 | 0.00 | 0.00 | 0.00 | 58 | 1015.9 |
| 20260510000006 | 56 | 125 | 0.9 | 2.6 | 0.00 | 0.00 | 0.00 | 59 | 1015.9 |
| 20260509235006 | 56 | 55 | 0.9 | 6.1 | 0.00 | 0.00 | 0.00 | 59 | 1016.0 |
| 20260509234006 | 56 | 154 | 0.9 | 2.6 | 0.00 | 0.00 | 0.00 | 58 | 1015.8 |
| 20260509233005 | 56 | 149 | 0.9 | 7.0 | 0.00 | 0.00 | 0.00 | 58 | 1015.8 |
| 20260509232006 | 56 | 130 | 0.9 | 7.0 | 0.00 | 0.00 | 0.00 | 58 | 1015.9 |
| 20260509231006 | 56 | 149 | 0.9 | 4.3 | 0.00 | 0.00 | 0.00 | 57 | 1016.0 |
| 20260509230005 | 56 | 179 | 0.9 | 2.6 | 0.00 | 0.00 | 0.00 | 55 | 1016.0 |
| 20260509225005 | 56 | 127 | 0.9 | 7.8 | 0.00 | 0.00 | 0.00 | 57 | 1015.9 |
| 20260509224007 | 57 | 135 | 1.7 | 6.1 | 0.00 | 0.00 | 0.00 | 59 | 1015.9 |
| 20260509223005 | 57 | 146 | 0.9 | 2.6 | 0.00 | 0.00 | 0.00 | 60 | 1015.9 |
| 20260509221005 | 57 | 170 | 0.9 | 4.3 | 0.00 | 0.00 | 0.00 | 60 | 1015.9 |
| 20260509220005 | 58 | 146 | 0.9 | 2.6 | 0.00 | 0.00 | 0.00 | 58 | 1015.9 |
| 20260509215005 | 58 | 183 | 0.9 | 5.2 | 0.00 | 0.00 | 0.00 | 56 | 1015.8 |
| 20260509214005 | 58 | 128 | 0.0 | 5.2 | 0.00 | 0.00 | 0.00 | 56 | 1015.7 |
| 20260509213006 | 58 | 33 | 0.9 | 6.1 | 0.00 | 0.00 | 0.00 | 58 | 1015.7 |
| 20260509212005 | 59 | 29 | 0.0 | 2.6 | 0.00 | 0.00 | 0.00 | 58 | 1015.6 |
| 20260509211005 | 59 | 43 | 0.0 | 7.0 | 0.00 | 0.00 | 0.00 | 60 | 1015.7 |
| 20260509210005 | 59 | 19 | 0.0 | 1.7 | 0.00 | 0.00 | 0.00 | 61 | 1015.7 |
| 20260509205005 | 59 | 84 | 0.9 | 2.6 | 0.00 | 0.00 | 0.00 | 61 | 1015.5 |
| 20260509204005 | 60 | 120 | 0.9 | 4.3 | 0.00 | 0.00 | 0.00 | 59 | 1015.5 |
| 20260509203005 | 60 | 66 | 0.9 | 4.3 | 0.00 | 0.00 | 0.00 | 58 | 1015.3 |
| 20260509201005 | 60 | 109 | 0.9 | 2.6 | 0.00 | 0.00 | 0.00 | 62 | 1015.0 |
| 20260509200005 | 60 | 46 | 0.9 | 2.6 | 0.00 | 0.00 | 0.00 | 63 | 1014.8 |
| 20260509195005 | 60 | 148 | 0.9 | 2.6 | 0.00 | 0.00 | 0.00 | 65 | 1014.7 |
| 20260509194007 | 60 | 145 | 0.9 | 1.7 | 0.00 | 0.00 | 0.00 | 69 | 1014.6 |
| 20260509192005 | 60 | 140 | 0.0 | 0.9 | 0.00 | 0.00 | 0.00 | 72 | 1014.6 |
| 20260509191005 | 61 | 140 | 0.0 | 2.6 | 0.00 | 0.00 | 0.00 | 71 | 1014.7 |
| 20260509190006 | 61 | 140 | 0.9 | 6.1 | 0.00 | 0.00 | 0.00 | 70 | 1014.7 |
| 20260509185005 | 62 | 139 | 2.6 | 7.0 | 0.00 | 0.00 | 0.00 | 66 | 1014.8 |
| 20260509184005 | 63 | 136 | 1.7 | 6.1 | 0.00 | 0.00 | 0.00 | 64 | 1014.7 |
| 20260509183005 | 64 | 148 | 1.7 | 4.3 | 0.00 | 0.00 | 0.00 | 63 | 1014.5 |
| 20260509182005 | 64 | 144 | 0.9 | 2.6 | 0.00 | 0.00 | 0.00 | 61 | 1014.5 |
| 20260509181005 | 65 | 148 | 0.9 | 10.4 | 0.00 | 0.00 | 0.00 | 59 | 1014.5 |
| 20260509180005 | 65 | 129 | 6.1 | 10.4 | 0.00 | 0.00 | 0.00 | 57 | 1014.6 |
| 20260509174005 | 66 | 149 | 0.0 | 2.6 | 0.00 | 0.00 | 0.00 | 56 | 1014.4 |
| 20260509173006 | 66 | 147 | 0.0 | 2.6 | 0.00 | 0.00 | 0.00 | 56 | 1014.4 |
| 20260509172005 | 67 | 151 | 0.0 | 4.3 | 0.00 | 0.00 | 0.00 | 56 | 1014.5 |
| 20260509171005 | 67 | 153 | 0.9 | 5.2 | 0.00 | 0.00 | 0.00 | 54 | 1014.5 |
| 20260509165005 | 68 | 146 | 2.6 | 7.0 | 0.00 | 0.00 | 0.00 | 51 | 1014.5 |
| 20260509164006 | 68 | 144 | 1.7 | 7.8 | 0.00 | 0.00 | 0.00 | 52 | 1014.6 |
| 20260509163005 | 68 | 138 | 4.3 | 10.4 | 0.00 | 0.00 | 0.00 | 51 | 1014.6 |
| 20260509162005 | 69 | 135 | 7.8 | 12.2 | 0.00 | 0.00 | 0.00 | 51 | 1014.6 |
| 20260509161007 | 69 | 135 | 5.2 | 10.4 | 0.00 | 0.00 | 0.00 | 51 | 1014.6 |
| 20260509160005 | 69 | 143 | 4.3 | 12.2 | 0.00 | 0.00 | 0.00 | 51 | 1014.6 |
| 20260509155005 | 70 | 138 | 2.6 | 12.2 | 0.00 | 0.00 | 0.00 | 52 | 1014.6 |